MDT,Max TemperatureF,Mean TemperatureF,Min TemperatureF,Max Dew PointF,MeanDew PointF,Min DewpointF,Max Humidity, Mean Humidity, Min Humidity, Max Sea Level PressureIn, Mean Sea Level PressureIn, Min Sea Level PressureIn, Max VisibilityMiles, Mean VisibilityMiles, Min VisibilityMiles, Max Wind SpeedMPH, Mean Wind SpeedMPH, Max Gust SpeedMPH,PrecipitationIn, CloudCover, Events, WindDirDegrees
2013-3-1,33,27,21,21,18,12,93,68,56,30.46,30.42,30.36,10,9,5,18,3,25,0.01,3,Snow,244
2013-3-2,46,34,21,21,17,14,80,55,27,30.49,30.41,30.29,10,10,10,12,5,16,0.00,0,,140
2013-3-3,42,37,32,32,19,12,100,55,29,30.28,30.07,29.91,10,9,2,16,4,32,0.00,5,Snow,161
2013-3-4,35,27,19,32,25,10,100,79,55,30.18,29.98,29.88,10,7,0,21,5,28,0.08,6,Snow,273
2013-3-5,44,29,14,12,3,-15,73,36,8,30.29,30.23,30.18,10,10,10,18,7,26,0.00,0,,125
2013-3-6,48,42,35,18,11,1,48,31,16,30.20,30.10,30.04,10,10,10,18,11,34,0.00,1,,143
2013-3-7,46,40,33,16,7,-2,44,26,13,30.10,30.06,30.03,10,10,10,21,12,31,0.00,0,,144
2013-3-8,37,32,26,32,20,10,100,63,35,30.04,29.87,29.72,10,8,0,18,5,29,0.00,6,Snow-Thunderstorm,115
2013-3-9,28,24,21,25,20,12,100,83,55,29.98,29.79,29.64,10,6,1,18,8,24,0.01,8,Snow-Thunderstorm,259
2013-3-10,30,22,14,19,11,5,93,63,37,30.24,30.13,29.98,10,10,5,17,9,24,0.00,1,Snow,241
2013-3-11,37,27,17,19,14,10,79,58,33,30.23,30.19,30.14,10,10,10,16,5,21,0.00,0,,174
2013-3-12,42,33,24,21,20,18,80,59,36,30.38,30.28,30.20,10,10,10,14,3,22,0.00,2,,202
2013-3-13,46,35,24,19,16,12,69,47,25,30.48,30.43,30.37,10,10,10,10,4,16,0.00,0,,132
2013-3-14,53,40,28,21,16,5,64,41,15,30.51,30.47,30.43,10,10,10,12,6,,0.00,0,,147
2013-3-15,55,44,33,21,17,12,60,37,18,30.44,30.30,30.18,10,10,10,13,6,18,0.00,0,,157
2013-3-16,42,37,32,32,26,19,87,67,48,30.17,30.06,29.99,10,10,1,15,6,22,0.00,5,Snow-Thunderstorm,148
2013-3-17,41,36,30,30,17,3,93,53,22,29.99,29.90,29.84,10,10,0,26,8,38,0.00,5,Snow,251
2013-3-18,35,29,23,10,7,3,54,37,26,30.11,30.04,29.97,10,10,10,18,5,26,0.00,2,,240
2013-3-19,37,32,28,14,9,3,55,38,24,30.27,30.16,30.08,10,10,10,16,5,23,0.00,4,,239
2013-3-20,42,32,23,32,16,1,100,54,28,30.27,30.16,30.01,10,10,7,21,6,30,0.00,5,Snow,143
2013-3-21,37,30,23,32,20,-4,100,65,21,29.99,29.87,29.79,10,8,1,26,6,36,0.07,6,Snow,241
2013-3-22,37,28,19,12,5,-4,63,39,17,29.91,29.78,29.68,10,10,10,23,7,37,0.00,5,,212
2013-3-23,23,14,6,14,6,0,93,74,43,30.02,29.85,29.73,10,6,0,20,8,29,0.00,6,Snow,264
2013-3-24,26,14,3,5,0,-4,79,57,31,30.05,29.99,29.95,10,10,10,15,6,25,0.00,3,,164
2013-3-25,32,19,6,9,-1,-15,73,44,14,30.19,30.10,30.04,10,10,10,14,5,18,0.00,1,,166
2013-3-26,44,34,24,18,13,5,74,43,21,30.18,30.10,30.04,10,10,10,22,6,30,0.00,3,,169
2013-3-27,46,39,32,23,14,7,65,38,22,30.18,30.12,30.07,10,10,10,14,5,32,0.00,3,,208
2013-3-28,50,42,33,21,15,9,52,35,20,30.27,30.20,30.18,10,10,10,13,5,23,0.00,2,,230
2013-3-29,50,42,35,25,21,16,65,46,30,30.33,30.29,30.26,10,10,10,10,4,20,0.00,5,,130
2013-3-30,48,40,32,32,25,19,81,58,32,30.33,30.29,30.24,10,10,10,17,5,23,0.00,5,Rain,140
2013-3-31,51,40,30,28,21,10,87,51,20,30.25,30.21,30.16,10,10,10,13,5,21,0.00,1,,157